Meteo Giornale » Osservazioni meteo Norvegia » Molde-Aro
ore: 17:50 - Osservazioni Meteo Molde-Aro
Lat. 62° 45' N Lon. 7° 16' E Alt. 0 metri s.l.m.
16 °C
Molto Nuvoloso
Temp. 24 Ore
12 °C
16 °C
Nord
5.5 Km/h
Dew point 12 °C
Umidità 77 %
Visibilità 10 Km
Il sole sorge alle ore 06:15
Il sole tramonta alle ore 20:46
| Data e Ora | Cielo e Fenomeni | T °C | DP °C | Um. % | Pres. hPa | Vis. km | Vento km/h | |
|---|---|---|---|---|---|---|---|---|
| Oggi h: 17:50 | Molto Nuvoloso | 16 | 12 | 77 | 1006 | 10 | N 5.5 | |
| Oggi h: 17:20 | Molto Nuvoloso | 16 | 11 | 72 | 1006 | 10 | N 7.4 | |
| Oggi h: 16:50 | Nuvoloso | 16 | 12 | 77 | 1006 | 10 | N 3.7 | |
| Oggi h: 16:20 | Nuvoloso | 16 | 12 | 77 | 1006 | 10 | N 0 | |
| Oggi h: 15:50 | Nuvoloso | 16 | 11 | 72 | 1006 | 10 | E/SE 7.4 | |
| Oggi h: 15:20 | Nuvoloso | 15 | 12 | 82 | 1006 | 10 | NE 9.3 | |
| Oggi h: 13:20 | Pioggia nelle vicinanze | 16 | 13 | 82 | 1006 | 10 | O/SO 9.3 | |
| Oggi h: 11:50 | Molto Nuvoloso | 14 | 12 | 87 | 1006 | 10 | N 0 | |
| Oggi h: 10:50 | Molto Nuvoloso | 14 | 12 | 87 | 1006 | 10 | N 0 | |
| Oggi h: 10:20 | Molto Nuvoloso | 13 | 12 | 93 | 1006 | 10 | N 0 | |
| Oggi h: 09:50 | Pioggia nelle vicinanze | 13 | 12 | 93 | 1006 | 10 | N 3.7 | |
| Oggi h: 08:50 | Pioggia | 13 | 12 | 93 | 1005 | 10 | N 0 | |
| Oggi h: 08:20 | Pioggia | 12 | 12 | 100 | 1005 | 10 | N 3.7 | |
| Oggi h: 07:50 | Pioggia | 12 | 12 | 100 | 1005 | 10 | N 3.7 | |
| Oggi h: 07:20 | Pioggia | 12 | 11 | 93 | 1005 | 10 | N 3.7 | |
| Oggi h: 06:50 | Pioggia | 12 | 12 | 100 | 1005 | 10 | N 3.7 | |
| Oggi h: 06:20 | Pioggia | 12 | 12 | 100 | 1005 | 10 | N 5.5 | |
| Oggi h: 05:50 | Pioggia | 12 | 11 | 93 | 1005 | 10 | N 0 | |
| Oggi h: 05:20 | Pioggia | 12 | 11 | 93 | 1005 | 10 | N 1.8 | |
| Oggi h: 04:50 | Pioggia | 12 | 11 | 93 | 1005 | 10 | N 3.7 | |
| Oggi h: 04:20 | Pioggia | 12 | 11 | 93 | 1005 | 10 | N 1.8 | |
| Oggi h: 03:50 | Pioggia | 12 | 11 | 93 | 1005 | 10 | N 0 | |
| Oggi h: 03:20 | Pioggia | 13 | 11 | 87 | 1005 | 10 | N 3.7 | |
| Oggi h: 02:50 | Pioggia | 13 | 11 | 87 | 1005 | 10 | N 5.5 | |
| Oggi h: 02:20 | Pioviggine | 13 | 11 | 87 | 1005 | 10 | N 5.5 | |
| Oggi h: 01:50 | Pioggia | 13 | 11 | 87 | 1005 | 10 | N 3.7 | |
| Oggi h: 01:20 | Pioggia | 13 | 11 | 87 | 1005 | 10 | N 0 | |
| Oggi h: 00:50 | Pioggia | 13 | 11 | 87 | 1004 | 10 | N 3.7 | |
| Oggi h: 00:20 | Pioggia | 13 | 11 | 87 | 1004 | 10 | N 1.8 | |
| Ieri h: 23:50 | Coperto | 13 | 11 | 87 | 1004 | 10 | N 0 | |
| Ieri h: 23:20 | Molto Nuvoloso | 14 | 11 | 82 | 1004 | 10 | N 1.8 | |
| Ieri h: 22:50 | Nuvoloso | 14 | 11 | 82 | 1004 | 10 | N 0 | |
| Ieri h: 21:50 | Molto Nuvoloso | 14 | 11 | 82 | 1004 | 10 | N 3.7 | |
| Ieri h: 20:50 | Molto Nuvoloso | 14 | 12 | 87 | 1004 | 10 | N 0 | |
| Ieri h: 20:20 | Molto Nuvoloso | 14 | 11 | 82 | 1004 | 10 | N 0 | |
| Ieri h: 19:20 | Molto Nuvoloso | 14 | 13 | 93 | 1003 | 10 | S/SO 7.4 | |
| Ieri h: 18:50 | Coperto | 14 | 13 | 93 | 1003 | 10 | S/SO 7.4 | |



